Location: Milton
(43.5183°N, 79.8775°W)
Time: 05:25:13
(UTC+00:00)

Tiangong - Visible Passes

Search period start: 28 November 2022 00:00
Search period end: 08 December 2022 00:00
Orbit: 386 x 393 km, 41.5° (Epoch: 27 November)

Date Brightness Start Highest point End Pass type
(mag) Time Alt. Az. Time Alt. Az. Time Alt. Az.
28 Nov 0.3 23:33:46 10° S 23:35:00 14° SSE 23:35:00 14° SSE visible
30 Nov 0.7 00:11:16 10° SW 00:12:06 16° SW 00:12:06 16° SW visible
30 Nov -0.5 23:13:35 10° SSW 23:16:12 24° SSE 23:16:49 22° SE visible
01 Dec 0.1 22:16:11 10° SSW 22:18:15 16° SSE 22:20:19 10° ESE visible
01 Dec -0.6 23:51:40 10° WSW 23:53:47 33° SW 23:53:47 33° SW visible
02 Dec -1.0 22:53:43 10° SW 22:56:40 35° SSE 22:58:23 20° ESE visible
03 Dec 1.3 00:30:14 10° W 00:30:41 13° WSW 00:30:41 13° WSW visible
03 Dec -1.8 23:32:05 10° WSW 23:35:13 56° S 23:35:14 56° S visible
04 Dec -1.4 22:33:56 10° WSW 22:37:01 48° S 22:39:45 13° E visible
05 Dec 0.4 00:10:39 10° W 00:12:03 23° WSW 00:12:03 23° WSW visible
05 Dec -1.8 23:12:24 10° W 23:15:33 60° S 23:16:34 37° ESE visible
06 Dec -1.6 22:14:08 10° WSW 22:17:17 57° S 22:20:25 10° E visible
06 Dec -0.8 23:50:58 10° W 23:53:23 38° SW 23:53:23 38° SW visible
07 Dec -1.6 22:52:37 10° W 22:55:45 55° S 22:57:57 17° ESE visible
